EW7704 Weather Reports


Display with metric or nautical units.
time (UTC)temp
F
wind
direction
speed
MPH
gust
MPH
rain 1hr
in
rain 24hr
in
rain mn
in
humidity
%
barometer
mb
20260901012033 73 232 1.0 7.0 0.00 0.00 0.00 53 1008.7
20260901011533 73 236 0.0 10.0 0.00 0.00 0.00 52 1008.8
20260901011033 74 283 3.0 13.0 0.00 0.00 0.00 50 1008.9
20260901010534 76 262 3.0 13.0 0.00 0.00 0.00 49 1009.0
20260901010037 79 211 5.0 11.0 0.00 0.00 0.00 43 1008.7
20260901005532 81 203 2.0 8.0 0.00 0.00 0.00 34 1008.4
20260901005032 81 240 2.0 6.0 0.00 0.00 0.00 33 1008.2
20260901004532 82 360 2.0 6.0 0.00 0.00 0.00 31 1007.9
20260901004032 82 360 0.0 4.0 0.00 0.00 0.00 29 1007.7
20260901003531 82 13 2.0 5.0 0.00 0.00 0.00 29 1007.6
20260901003031 82 360 1.0 6.0 0.00 0.00 0.00 29 1007.6
20260901002530 82 25 2.0 6.0 0.00 0.00 0.00 28 1007.5
20260901002033 83 360 3.0 8.0 0.00 0.00 0.00 28 1007.5
20260901001530 83 360 4.0 10.0 0.00 0.00 0.00 28 1007.5
20260901001030 83 19 5.0 10.0 0.00 0.00 0.00 28 1007.5
20260901000529 83 10 2.0 7.0 0.00 0.00 0.00 28 1007.5
20260901000028 83 9 3.0 6.0 0.00 0.00 0.00 28 1007.5
20260831235528 83 30 3.0 8.0 0.00 0.00 0.00 29 1007.5
20260831235029 84 30 3.0 8.0 0.00 0.00 0.00 28 1007.5
20260831234527 84 26 2.0 5.0 0.00 0.00 0.00 29 1007.4
20260831234028 84 17 3.0 5.0 0.00 0.00 0.00 29 1007.3
20260831233529 84 38 2.0 6.0 0.00 0.00 0.00 29 1007.5
20260831233025 84 14 2.0 6.0 0.00 0.00 0.00 29 1007.4
20260831232525 85 30 2.0 10.0 0.00 0.00 0.00 29 1007.4
20260831232024 85 46 4.0 10.0 0.00 0.00 0.00 27 1007.6
20260831231523 85 69 6.0 10.0 0.00 0.00 0.00 26 1007.7
20260831231024 85 34 4.0 10.0 0.00 0.00 0.00 27 1007.7
20260831230526 85 63 6.0 10.0 0.00 0.00 0.00 27 1007.7
20260831230023 85 35 5.0 10.0 0.00 0.00 0.00 27 1007.8
20260831225522 85 78 5.0 10.0 0.00 0.00 0.00 27 1007.8
20260831225021 85 47 3.0 8.0 0.00 0.00 0.00 27 1007.9
20260831224520 85 52 4.0 8.0 0.00 0.00 0.00 27 1007.9
20260831224020 85 35 4.0 8.0 0.00 0.00 0.00 27 1007.9
20260831223518 84 49 5.0 8.0 0.00 0.00 0.00 28 1008.0
20260831223020 84 44 5.0 8.0 0.00 0.00 0.00 29 1008.1
20260831222518 84 56 3.0 9.0 0.00 0.00 0.00 28 1008.2
20260831222016 84 39 5.0 8.0 0.00 0.00 0.00 29 1008.2
20260831221529 85 65 4.0 10.0 0.00 0.00 0.00 28 1008.3
20260831221016 85 44 5.0 10.0 0.00 0.00 0.00 28 1008.3
20260831220515 85 94 4.0 11.0 0.00 0.00 0.00 29 1008.2
20260831220015 85 37 5.0 11.0 0.00 0.00 0.00 29 1008.4
20260831215517 85 48 5.0 9.0 0.00 0.00 0.00 28 1008.4
20260831215015 85 59 5.0 9.0 0.00 0.00 0.00 27 1008.4
20260831214514 84 82 2.0 10.0 0.00 0.00 0.00 29 1008.4
20260831214014 84 32 5.0 12.0 0.00 0.00 0.00 28 1008.5
20260831213513 84 49 5.0 10.0 0.00 0.00 0.00 29 1008.6
20260831213013 84 109 2.0 8.0 0.00 0.00 0.00 30 1008.7
20260831212513 84 22 3.0 9.0 0.00 0.00 0.00 30 1008.8
20260831212013 83 77 4.0 8.0 0.00 0.00 0.00 30 1008.8
20260831211513 83 46 4.0 9.0 0.00 0.00 0.00 31 1008.9
20260831211012 83 67 4.0 9.0 0.00 0.00 0.00 31 1009.0
20260831210515 83 11 4.0 9.0 0.00 0.00 0.00 31 1009.0
20260831210012 83 11 3.0 9.0 0.00 0.00 0.00 31 1009.2
20260831205512 83 11 5.0 9.0 0.00 0.00 0.00 30 1009.3
20260831205014 83 9 5.0 8.0 0.00 0.00 0.00 32 1009.3
20260831204512 83 11 3.0 9.0 0.00 0.00 0.00 31 1009.4
20260831204012 83 12 4.0 9.0 0.00 0.00 0.00 32 1009.6
20260831203511 83 11 4.0 11.0 0.00 0.00 0.00 31 1009.6
20260831203011 83 80 6.0 11.0 0.00 0.00 0.00 30 1009.7
20260831202511 83 61 5.0 12.0 0.00 0.00 0.00 31 1009.7
20260831202011 84 62 2.0 7.0 0.00 0.00 0.00 31 1009.7
20260831201511 83 109 4.0 9.0 0.00 0.00 0.00 31 1009.9
20260831201014 84 94 2.0 10.0 0.00 0.00 0.00 29 1010.0
20260831200511 85 67 3.0 8.0 0.00 0.00 0.00 30 1010.0
20260831200010 84 98 2.0 10.0 0.00 0.00 0.00 31 1010.1
20260831195509 83 5 3.0 10.0 0.00 0.00 0.00 30 1010.1
20260831195009 84 42 5.0 10.0 0.00 0.00 0.00 28 1010.3
20260831194521 84 116 5.0 8.0 0.00 0.00 0.00 31 1010.3
20260831194007 83 89 1.0 7.0 0.00 0.00 0.00 30 1010.4
20260831193508 83 43 5.0 7.0 0.00 0.00 0.00 29 1010.4
20260831193006 83 102 3.0 9.0 0.00 0.00 0.00 30 1010.5
20260831192506 82 63 5.0 9.0 0.00 0.00 0.00 30 1010.5
20260831192008 83 73 4.0 8.0 0.00 0.00 0.00 30 1010.7
20260831191505 83 115 4.0 8.0 0.00 0.00 0.00 30 1010.7
20260831191004 82 63 0.0 7.0 0.00 0.00 0.00 34 1010.8
20260831190503 81 91 2.0 6.0 0.00 0.00 0.00 31 1010.9
20260831190003 81 116 1.0 7.0 0.00 0.00 0.00 33 1011.0
20260831185501 81 73 3.0 7.0 0.00 0.00 0.00 34 1011.0
20260831185003 80 144 0.0 4.0 0.00 0.00 0.00 38 1011.0
20260831184502 81 11 1.0 4.0 0.00 0.00 0.00 34 1011.0
20260831184100 80 61 0.0 4.0 0.00 0.00 0.00 36 1011.0
20260831183600 80 28 2.0 6.0 0.00 0.00 0.00 34 1011.2
20260831183059 80 33 2.0 6.0 0.00 0.00 0.00 35 1011.2
20260831182558 80 38 0.0 6.0 0.00 0.00 0.00 35 1011.2
20260831182057 79 71 3.0 7.0 0.00 0.00 0.00 36 1011.2
20260831181556 79 75 3.0 5.0 0.00 0.00 0.00 37 1011.2
20260831181056 78 36 2.0 7.0 0.00 0.00 0.00 38 1011.2
20260831180555 78 109 2.0 7.0 0.00 0.00 0.00 38 1011.3
20260831180054 78 42 2.0 5.0 0.00 0.00 0.00 38 1011.4
20260831175554 78 122 2.0 7.0 0.00 0.00 0.00 38 1011.4
20260831175054 78 90 3.0 7.0 0.00 0.00 0.00 38 1011.5
20260831174600 78 84 4.0 8.0 0.00 0.00 0.00 38 1011.4
20260831174053 78 118 4.0 8.0 0.00 0.00 0.00 36 1011.3
20260831173553 78 57 1.0 3.0 0.00 0.00 0.00 44 1011.4
20260831173051 77 234 0.0 3.0 0.00 0.00 0.00 47 1011.3
20260831172549 77 19 1.0 3.0 0.00 0.00 0.00 46 1011.3
20260831172048 76 53 1.0 3.0 0.00 0.00 0.00 46 1011.4
20260831171550 76 37 0.0 3.0 0.00 0.00 0.00 46 1011.4
20260831171047 75 37 1.0 4.0 0.00 0.00 0.00 49 1011.4
20260831170547 74 37 1.0 3.0 0.00 0.00 0.00 48 1011.4
20260831170126 74 250 1.0 3.0 0.00 0.00 0.00 51 1011.5
20260831165546 74 351 0.0 3.0 0.00 0.00 0.00 50 1011.5
20260831165046 74 232 0.0 3.0 0.00 0.00 0.00 49 1011.5
20260831164546 74 225 1.0 3.0 0.00 0.00 0.00 51 1011.4
20260831164144 73 322 1.0 3.0 0.00 0.00 0.00 50 1011.4
20260831163543 73 205 0.0 3.0 0.00 0.00 0.00 54 1011.3
20260831163043 72 20 1.0 3.0 0.00 0.00 0.00 52 1011.3
20260831162543 72 13 1.0 3.0 0.00 0.00 0.00 51 1011.4
20260831162041 72 5 1.0 3.0 0.00 0.00 0.00 53 1011.4
20260831161540 72 40 1.0 3.0 0.00 0.00 0.00 52 1011.5
20260831161040 72 26 0.0 3.0 0.00 0.00 0.00 54 1011.4
20260831160541 71 240 1.0 3.0 0.00 0.00 0.00 55 1011.4
20260831160039 71 11 0.0 3.0 0.00 0.00 0.00 57 1011.4
20260831155539 70 11 1.0 3.0 0.00 0.00 0.00 54 1011.3
20260831155039 70 21 1.0 3.0 0.00 0.00 0.00 55 1011.3
20260831154538 71 288 0.0 4.0 0.00 0.00 0.00 59 1011.3
20260831154037 70 229 1.0 4.0 0.00 0.00 0.00 60 1011.3
20260831153536 69 31 1.0 3.0 0.00 0.00 0.00 59 1011.3
20260831153034 69 43 1.0 4.0 0.00 0.00 0.00 60 1011.3
20260831152534 69 23 1.0 4.0 0.00 0.00 0.00 61 1011.2
20260831152034 69 360 2.0 5.0 0.00 0.00 0.00 60 1011.3
20260831151534 69 32 3.0 5.0 0.00 0.00 0.00 60 1011.3
20260831151034 68 55 2.0 4.0 0.00 0.00 0.00 59 1011.4
20260831150534 69 30 1.0 4.0 0.00 0.00 0.00 59 1011.3
20260831150033 69 313 0.0 3.0 0.00 0.00 0.00 59 1011.2
20260831145533 68 250 1.0 3.0 0.00 0.00 0.00 60 1011.2
20260831145033 68 248 0.0 2.0 0.00 0.00 0.00 63 1011.2
20260831144535 67 15 0.0 1.0 0.00 0.00 0.00 64 1011.2
20260831144029 67 16 0.0 1.0 0.00 0.00 0.00 64 1011.2
20260831143532 66 17 0.0 2.0 0.00 0.00 0.00 62 1011.2
20260831143028 66 16 0.0 2.0 0.00 0.00 0.00 65 1011.1
20260831142527 66 16 1.0 2.0 0.00 0.00 0.00 64 1011.0
20260831142029 66 17 0.0 2.0 0.00 0.00 0.00 67 1010.9
20260831141527 65 18 0.0 2.0 0.00 0.00 0.00 66 1011.0
20260831141026 65 14 0.0 2.0 0.00 0.00 0.00 67 1010.9
20260831140529 64 14 1.0 2.0 0.00 0.00 0.00 68 1010.7
20260831140032 65 14 0.0 1.0 0.00 0.00 0.00 70 1010.8
20260831135526 64 13 0.0 2.0 0.00 0.00 0.00 71 1010.7
20260831135027 63 14 0.0 2.0 0.00 0.00 0.00 72 1010.6
20260831134525 63 14 0.0 2.0 0.00 0.00 0.00 77 1010.6
20260831134023 63 13 0.0 2.0 0.00 0.00 0.00 74 1010.7
20260831133523 63 15 0.0 2.0 0.00 0.00 0.00 72 1010.5
20260831133026 63 15 0.0 2.0 0.00 0.00 0.00 73 1010.4
20260831132523 62 15 0.0 1.0 0.00 0.00 0.00 75 1010.4
20260831132022 62 15 0.0 2.0 0.00 0.00 0.00 76 1010.3
20260831131520 61 15 0.0 2.0 0.00 0.00 0.00 77 1010.2
20260831131021 61 15 0.0 1.0 0.00 0.00 0.00 76 1010.1
20260831130520 61 15 0.0 2.0 0.00 0.00 0.00 77 1010.0
20260831130020 61 15 1.0 2.0 0.00 0.00 0.00 78 1010.1
20260831125521 61 349 0.0 2.0 0.00 0.00 0.00 79 1010.1
20260831125021 60 346 0.0 2.0 0.00 0.00 0.00 79 1010.0
20260831124518 60 346 0.0 2.0 0.00 0.00 0.00 80 1009.9
20260831124023 60 275 0.0 2.0 0.00 0.00 0.00 79 1009.8
20260831123516 60 270 0.0 1.0 0.00 0.00 0.00 79 1009.7
20260831123016 61 272 0.0 1.0 0.00 0.00 0.00 78 1009.6
20260831122515 61 273 0.0 2.0 0.00 0.00 0.00 77 1009.7
20260831122014 61 238 0.0 2.0 0.00 0.00 0.00 74 1009.7
20260831121517 61 243 1.0 2.0 0.00 0.00 0.00 72 1009.4
20260831121013 62 229 0.0 2.0 0.00 0.00 0.00 70 1009.5
20260831120515 62 200 0.0 1.0 0.00 0.00 0.00 71 1009.3
20260831120021 61 200 0.0 2.0 0.00 0.00 0.00 72 1009.3
20260831115512 61 198 0.0 1.0 0.00 0.00 0.00 72 1009.2
20260831115012 61 333 0.0 1.0 0.00 0.00 0.00 71 1009.3
20260831114513 61 333 0.0 1.0 0.00 0.00 0.00 72 1009.2
20260831114013 61 333 0.0 1.0 0.00 0.00 0.00 72 1009.3
20260831113513 60 335 0.0 1.0 0.00 0.00 0.00 73 1009.3
20260831113010 60 337 0.0 2.0 0.00 0.00 0.00 72 1009.3
20260831112510 62 327 1.0 2.0 0.00 0.00 0.00 69 1009.2
20260831112009 62 325 0.0 1.0 0.00 0.00 0.00 70 1009.1
20260831111520 62 326 0.0 1.0 0.00 0.00 0.00 70 1009.2
20260831111010 62 329 0.0 1.0 0.00 0.00 0.00 70 1009.2
20260831110508 62 335 0.0 0.0 0.00 0.00 0.00 69 1009.3
20260831110007 62 335 0.0 0.0 0.00 0.00 0.00 68 1009.2
20260831105506 63 337 0.0 0.0 0.00 0.00 0.00 68 1009.1
20260831105005 63 315 0.0 1.0 0.00 0.00 0.00 67 1009.1
20260831104505 64 339 0.0 2.0 0.00 0.00 0.00 66 1009.1
20260831104003 64 286 0.0 2.0 0.00 0.00 0.00 65 1009.1
20260831103507 64 102 0.0 4.0 0.00 0.00 0.00 64 1009.0
20260831103003 63 224 1.0 4.0 0.00 0.00 0.00 65 1009.2
20260831102503 65 15 1.0 4.0 0.00 0.00 0.00 63 1009.0
20260831102004 65 130 0.0 3.0 0.00 0.00 0.00 61 1008.8
20260831101503 65 132 1.0 4.0 0.00 0.00 0.00 62 1008.6
20260831101002 64 119 1.0 3.0 0.00 0.00 0.00 63 1008.6
20260831100503 64 262 0.0 2.0 0.00 0.00 0.00 63 1008.5
20260831100007 64 184 0.0 2.0 0.00 0.00 0.00 63 1008.6
20260831095501 64 208 0.0 2.0 0.00 0.00 0.00 63 1008.6
20260831095100 64 208 0.0 1.0 0.00 0.00 0.00 61 1008.6
20260831094600 65 208 0.0 2.0 0.00 0.00 0.00 60 1008.7
20260831094100 65 208 0.0 2.0 0.00 0.00 0.00 60 1008.6
20260831093559 65 185 0.0 3.0 0.00 0.00 0.00 59 1008.5
20260831093059 65 127 0.0 3.0 0.00 0.00 0.00 58 1008.5
20260831092600 65 223 0.0 2.0 0.00 0.00 0.00 59 1008.6
20260831092058 66 229 0.0 2.0 0.00 0.00 0.00 57 1008.5
20260831091610 66 322 0.0 1.0 0.00 0.00 0.00 56 1008.5
20260831091058 65 322 0.0 2.0 0.00 0.00 0.00 58 1008.5
20260831090557 65 322 0.0 2.0 0.00 0.00 0.00 58 1008.5
20260831085556 67 229 0.0 1.0 0.00 0.00 0.00 54 1008.5
20260831085056 67 229 0.0 2.0 0.00 0.00 0.00 53 1008.4
20260831084556 67 211 0.0 2.0 0.00 0.00 0.00 53 1008.3
20260831084055 67 193 0.0 2.0 0.00 0.00 0.00 53 1008.4
20260831083559 67 222 0.0 2.0 0.00 0.00 0.00 52 1008.4
20260831083054 67 215 0.0 2.0 0.00 0.00 0.00 52 1008.4
20260831082555 67 184 0.0 2.0 0.00 0.00 0.00 52 1008.5
20260831082057 67 205 0.0 2.0 0.00 0.00 0.00 51 1008.5
20260831081553 67 219 0.0 2.0 0.00 0.00 0.00 51 1008.7
20260831081054 67 198 0.0 1.0 0.00 0.00 0.00 51 1008.7
20260831080553 66 192 0.0 3.0 0.00 0.00 0.00 51 1008.6
20260831080103 66 189 0.0 3.0 0.00 0.00 0.00 51 1008.7
20260831075551 67 217 0.0 3.0 0.00 0.00 0.00 50 1008.8
20260831075051 67 221 0.0 3.0 0.00 0.00 0.00 49 1008.8
20260831074550 68 30 0.0 3.0 0.00 0.00 0.00 47 1009.1
20260831074050 68 113 0.0 3.0 0.00 0.00 0.00 46 1009.1
20260831073547 68 223 1.0 3.0 0.00 0.00 0.00 47 1009.0
20260831073048 68 256 0.0 3.0 0.00 0.00 0.00 48 1009.0
20260831072546 68 209 1.0 4.0 0.00 0.00 0.00 49 1009.1
20260831072045 67 147 1.0 4.0 0.00 0.00 0.00 50 1009.1
20260831071545 67 325 1.0 4.0 0.00 0.00 0.00 51 1008.9
20260831071045 67 81 1.0 4.0 0.00 0.00 0.00 51 1008.9
20260831070549 67 185 1.0 5.0 0.00 0.00 0.00 51 1009.0
20260831070046 67 204 1.0 6.0 0.00 0.00 0.00 52 1008.9
20260831065544 67 246 0.0 5.0 0.00 0.00 0.00 53 1009.0
20260831065044 66 219 1.0 5.0 0.00 0.00 0.00 53 1009.0
20260831064544 66 212 0.0 2.0 0.00 0.00 0.00 55 1009.0
20260831064042 66 107 0.0 1.0 0.00 0.00 0.00 55 1009.0
20260831063542 66 237 0.0 3.0 0.00 0.00 0.00 55 1009.0
20260831063042 66 238 0.0 3.0 0.00 0.00 0.00 56 1009.1
20260831062541 66 250 0.0 1.0 0.00 0.00 0.00 56 1009.2
20260831062040 66 249 0.0 1.0 0.00 0.00 0.00 55 1009.2
20260831061539 66 249 0.0 0.0 0.00 0.00 0.00 54 1009.1
20260831061037 67 249 0.0 2.0 0.00 0.00 0.00 54 1009.1
20260831060538 67 248 0.0 2.0 0.00 0.00 0.00 52 1009.4
20260831060038 67 248 0.0 2.0 0.00 0.00 0.00 53 1009.4
20260831055535 67 248 0.0 1.0 0.00 0.00 0.00 53 1009.5
20260831055035 67 248 0.0 2.0 0.00 0.00 0.00 52 1009.6
20260831054535 68 248 0.0 2.0 0.00 0.00 0.00 51 1009.5
20260831054035 69 248 0.0 3.0 0.00 0.00 0.00 50 1009.5
20260831053534 69 264 1.0 4.0 0.00 0.00 0.00 50 1009.6
20260831053034 69 223 1.0 4.0 0.00 0.00 0.00 51 1009.6
20260831052533 69 248 1.0 4.0 0.00 0.00 0.00 52 1009.8
20260831052034 69 202 1.0 5.0 0.00 0.00 0.00 54 1010.0
20260831051535 68 258 2.0 5.0 0.00 0.00 0.00 59 1010.0
20260831051033 68 221 0.0 2.0 0.00 0.00 0.00 62 1010.2
20260831050533 67 215 0.0 4.0 0.00 0.00 0.00 64 1010.1
20260831050033 67 208 0.0 4.0 0.00 0.00 0.00 65 1010.2
20260831045533 67 231 0.0 2.0 0.00 0.00 0.00 66 1010.4
20260831045033 66 173 0.0 1.0 0.00 0.00 0.00 69 1010.3
20260831044531 66 175 0.0 1.0 0.00 0.00 0.00 69 1010.2
20260831044032 66 175 0.0 1.0 0.00 0.00 0.00 70 1010.1
20260831043530 66 178 0.0 1.0 0.00 0.00 0.00 70 1010.0
20260831043030 66 360 0.0 1.0 0.00 0.00 0.00 70 1010.0
20260831042532 66 217 0.0 1.0 0.00 0.00 0.00 70 1010.0
20260831042030 66 217 0.0 3.0 0.00 0.00 0.00 71 1009.9
20260831041532 65 222 1.0 3.0 0.00 0.00 0.00 71 1009.8
20260831041027 65 223 0.0 2.0 0.00 0.00 0.00 72 1009.6
20260831040527 64 227 0.0 2.0 0.00 0.00 0.00 72 1009.6
20260831040028 65 236 0.0 1.0 0.00 0.00 0.00 71 1009.5
20260831035527 65 202 0.0 1.0 0.00 0.00 0.00 71 1009.4
20260831035026 65 201 0.0 1.0 0.00 0.00 0.00 70 1009.5
20260831034526 65 233 0.0 1.0 0.00 0.00 0.00 68 1009.3
20260831034026 65 235 0.0 1.0 0.00 0.00 0.00 67 1009.3
20260831033525 65 232 0.0 1.0 0.00 0.00 0.00 67 1009.2
20260831033025 65 234 0.0 1.0 0.00 0.00 0.00 67 1009.2
20260831032525 66 232 0.0 1.0 0.00 0.00 0.00 66 1009.2
20260831032025 66 227 0.0 1.0 0.00 0.00 0.00 65 1009.2
20260831031535 66 227 0.0 0.0 0.00 0.00 0.00 64 1009.2
20260831031025 66 228 0.0 0.0 0.00 0.00 0.00 63 1009.2
20260831030525 67 234 0.0 0.0 0.00 0.00 0.00 62 1009.1
20260831030026 67 215 0.0 0.0 0.00 0.00 0.00 62 1009.0
20260831025525 67 202 0.0 0.0 0.00 0.00 0.00 62 1009.0
20260831025025 67 193 0.0 1.0 0.00 0.00 0.00 62 1008.9
20260831024525 67 192 0.0 2.0 0.00 0.00 0.00 63 1008.9
20260831024025 66 190 0.0 2.0 0.00 0.00 0.00 63 1008.9
20260831023526 67 189 0.0 0.0 0.00 0.00 0.00 63 1008.8
20260831023023 67 189 0.0 1.0 0.00 0.00 0.00 62 1008.6
20260831022527 67 191 0.0 1.0 0.00 0.00 0.00 62 1008.6
20260831022023 67 194 0.0 1.0 0.00 0.00 0.00 61 1008.5
20260831021523 68 360 0.0 1.0 0.00 0.00 0.00 60 1008.5
20260831021027 69 360 0.0 2.0 0.00 0.00 0.00 58 1008.4
20260831020524 69 360 0.0 3.0 0.00 0.00 0.00 57 1008.3
20260831020023 70 360 1.0 3.0 0.00 0.00 0.00 55 1008.2
20260831015522 70 360 0.0 3.0 0.00 0.00 0.00 54 1008.2
20260831015022 70 360 2.0 3.0 0.00 0.00 0.00 54 1008.2
20260831014522 70 360 1.0 3.0 0.00 0.00 0.00 54 1008.1
20260831014024 70 360 2.0 3.0 0.00 0.00 0.00 53 1008.1
20260831013522 70 360 1.0 3.0 0.00 0.00 0.00 54 1008.1
20260831013022 71 360 0.0 5.0 0.00 0.00 0.00 53 1007.9
20260831012522 71 360 2.0 5.0 0.00 0.00 0.00 52 1007.8